Year,Month,Day,Hour,Minute,Value (Times are PST for temperature in C)
2017,12,10,00,00,13.20
2017,12,10,00,01,13.20
2017,12,10,00,02,13.20
2017,12,10,00,03,13.20
2017,12,10,00,04,13.10
2017,12,10,00,05,13.10
2017,12,10,00,06,13.00
2017,12,10,00,07,13.00
2017,12,10,00,08,12.90
2017,12,10,00,09,12.90
2017,12,10,00,10,12.90
2017,12,10,00,11,12.80
2017,12,10,00,12,12.80
2017,12,10,00,13,12.80
2017,12,10,00,14,12.70
2017,12,10,00,15,12.70
2017,12,10,00,16,12.70
2017,12,10,00,17,12.70
2017,12,10,00,18,12.60
2017,12,10,00,19,12.60
2017,12,10,00,20,12.60
2017,12,10,00,21,12.60
2017,12,10,00,22,12.60
2017,12,10,00,23,12.60
2017,12,10,00,24,12.60
2017,12,10,00,25,12.50
2017,12,10,00,26,12.50
2017,12,10,00,27,12.40
2017,12,10,00,28,12.40
2017,12,10,00,29,12.40
2017,12,10,00,30,12.30
2017,12,10,00,31,12.20
2017,12,10,00,32,12.20
2017,12,10,00,33,12.10
2017,12,10,00,34,12.00
2017,12,10,00,35,12.00
2017,12,10,00,36,11.90
2017,12,10,00,37,11.90
2017,12,10,00,38,11.90
2017,12,10,00,39,11.90
2017,12,10,00,40,12.00
2017,12,10,00,41,12.00
2017,12,10,00,42,12.00
2017,12,10,00,43,12.00
2017,12,10,00,44,12.00
2017,12,10,00,45,11.90
2017,12,10,00,46,11.90
2017,12,10,00,47,11.90
2017,12,10,00,48,11.80
2017,12,10,00,49,11.80
2017,12,10,00,50,11.70
2017,12,10,00,51,11.70
2017,12,10,00,52,11.70
2017,12,10,00,53,11.70
2017,12,10,00,54,11.70
2017,12,10,00,55,11.80
2017,12,10,00,56,11.90
2017,12,10,00,57,11.90
2017,12,10,00,58,12.00
2017,12,10,00,59,12.10
2017,12,10,01,00,12.10
2017,12,10,01,01,12.10
2017,12,10,01,02,12.10
2017,12,10,01,03,12.20
2017,12,10,01,04,12.30
2017,12,10,01,05,12.40
2017,12,10,01,06,12.50
2017,12,10,01,07,12.50
2017,12,10,01,08,12.50
2017,12,10,01,09,12.40
2017,12,10,01,10,12.40
2017,12,10,01,11,12.50
2017,12,10,01,12,12.50
2017,12,10,01,13,12.60
2017,12,10,01,14,12.60
2017,12,10,01,15,12.50
2017,12,10,01,16,12.40
2017,12,10,01,17,12.30
2017,12,10,01,18,12.30
2017,12,10,01,19,12.40
2017,12,10,01,20,12.40
2017,12,10,01,21,12.50
2017,12,10,01,22,12.60
2017,12,10,01,23,12.60
2017,12,10,01,24,12.70
2017,12,10,01,25,12.70
2017,12,10,01,26,12.70
2017,12,10,01,27,12.70
2017,12,10,01,28,12.70
2017,12,10,01,29,12.70
2017,12,10,01,30,12.70
2017,12,10,01,31,12.70
2017,12,10,01,32,12.60
2017,12,10,01,33,12.60
2017,12,10,01,34,12.60
2017,12,10,01,35,12.70
2017,12,10,01,36,12.70
2017,12,10,01,37,12.70
2017,12,10,01,38,12.70
2017,12,10,01,39,12.70
2017,12,10,01,40,12.70
2017,12,10,01,41,12.70
2017,12,10,01,42,12.80
2017,12,10,01,43,12.80
2017,12,10,01,44,12.80
2017,12,10,01,45,12.80
2017,12,10,01,46,12.80
2017,12,10,01,47,12.80
2017,12,10,01,48,12.80
2017,12,10,01,49,12.80
2017,12,10,01,50,12.80
2017,12,10,01,51,12.80
2017,12,10,01,52,12.80
2017,12,10,01,53,12.80
2017,12,10,01,54,12.80
2017,12,10,01,55,12.80
2017,12,10,01,56,12.80
2017,12,10,01,57,12.80
2017,12,10,01,58,12.70
2017,12,10,01,59,12.70
2017,12,10,02,00,12.60
2017,12,10,02,01,12.60
2017,12,10,02,02,12.60
2017,12,10,02,03,12.60
2017,12,10,02,04,12.60
2017,12,10,02,05,12.60
2017,12,10,02,06,12.60
2017,12,10,02,07,12.60
2017,12,10,02,08,12.60
2017,12,10,02,09,12.60
2017,12,10,02,10,12.60
2017,12,10,02,11,12.60
2017,12,10,02,12,12.60
2017,12,10,02,13,12.50
2017,12,10,02,14,12.50
2017,12,10,02,15,12.50
2017,12,10,02,16,12.50
2017,12,10,02,17,12.50
2017,12,10,02,18,12.40
2017,12,10,02,19,12.40
2017,12,10,02,20,12.30
2017,12,10,02,21,12.30
2017,12,10,02,22,12.20
2017,12,10,02,23,12.20
2017,12,10,02,24,12.20
2017,12,10,02,25,12.20
2017,12,10,02,26,12.20
2017,12,10,02,27,12.20
2017,12,10,02,28,12.20
2017,12,10,02,29,12.20
2017,12,10,02,30,12.20
2017,12,10,02,31,12.20
2017,12,10,02,32,12.20
2017,12,10,02,33,12.20
2017,12,10,02,34,12.20
2017,12,10,02,35,12.20
2017,12,10,02,36,12.20
2017,12,10,02,37,12.20
2017,12,10,02,38,12.20
2017,12,10,02,39,12.20
2017,12,10,02,40,12.20
2017,12,10,02,41,12.20
2017,12,10,02,42,12.10
2017,12,10,02,43,12.10
2017,12,10,02,44,12.10
2017,12,10,02,45,12.10
2017,12,10,02,46,12.10
2017,12,10,02,47,12.10
2017,12,10,02,48,12.20
2017,12,10,02,49,12.20
2017,12,10,02,50,12.30
2017,12,10,02,51,12.30
2017,12,10,02,52,12.40
2017,12,10,02,53,12.40
2017,12,10,02,54,12.40
2017,12,10,02,55,12.40
2017,12,10,02,56,12.40
2017,12,10,02,57,12.40
2017,12,10,02,58,12.40
2017,12,10,02,59,12.40
2017,12,10,03,00,12.40
2017,12,10,03,01,12.40
2017,12,10,03,02,12.40
2017,12,10,03,03,12.40
2017,12,10,03,04,12.40
2017,12,10,03,05,12.40
2017,12,10,03,06,12.30
2017,12,10,03,07,12.30
2017,12,10,03,08,12.30
2017,12,10,03,09,12.30
2017,12,10,03,10,12.30
2017,12,10,03,11,12.20
2017,12,10,03,12,12.20
2017,12,10,03,13,12.20
2017,12,10,03,14,12.20
2017,12,10,03,15,12.30
2017,12,10,03,16,12.30
2017,12,10,03,17,12.30
2017,12,10,03,18,12.30
2017,12,10,03,19,12.30
2017,12,10,03,20,12.30
2017,12,10,03,21,12.30
2017,12,10,03,22,12.30
2017,12,10,03,23,12.30
2017,12,10,03,24,12.30
2017,12,10,03,25,12.30
2017,12,10,03,26,12.30
2017,12,10,03,27,12.30
2017,12,10,03,28,12.30
2017,12,10,03,29,12.30
2017,12,10,03,30,12.30
2017,12,10,03,31,12.40
2017,12,10,03,32,12.40
2017,12,10,03,33,12.40
2017,12,10,03,34,12.40
2017,12,10,03,35,12.40
2017,12,10,03,36,12.40
2017,12,10,03,37,12.40
2017,12,10,03,38,12.40
2017,12,10,03,39,12.40
2017,12,10,03,40,12.30
2017,12,10,03,41,12.30
2017,12,10,03,42,12.30
2017,12,10,03,43,12.30
2017,12,10,03,44,12.30
2017,12,10,03,45,12.30
2017,12,10,03,46,12.30
2017,12,10,03,47,12.40
2017,12,10,03,48,12.40
2017,12,10,03,49,12.30
2017,12,10,03,50,12.30
2017,12,10,03,51,12.30
2017,12,10,03,52,12.30
2017,12,10,03,53,12.30
2017,12,10,03,54,12.30
2017,12,10,03,55,12.20
2017,12,10,03,56,12.20
2017,12,10,03,57,12.20
2017,12,10,03,58,12.20
2017,12,10,03,59,12.20
2017,12,10,04,00,12.20
2017,12,10,04,01,12.20
2017,12,10,04,02,12.20
2017,12,10,04,03,12.20
2017,12,10,04,04,12.10
2017,12,10,04,05,12.10
2017,12,10,04,06,12.10
2017,12,10,04,07,12.10
2017,12,10,04,08,12.10
2017,12,10,04,09,12.10
2017,12,10,04,10,12.10
2017,12,10,04,11,12.10
2017,12,10,04,12,12.10
2017,12,10,04,13,12.10
2017,12,10,04,14,12.10
2017,12,10,04,15,12.10
2017,12,10,04,16,12.10
2017,12,10,04,17,12.00
2017,12,10,04,18,12.00
2017,12,10,04,19,12.00
2017,12,10,04,20,12.00
2017,12,10,04,21,12.00
2017,12,10,04,22,12.00
2017,12,10,04,23,11.90
2017,12,10,04,24,11.90
2017,12,10,04,25,11.90
2017,12,10,04,26,11.90
2017,12,10,04,27,11.90
2017,12,10,04,28,11.90
2017,12,10,04,29,11.90
2017,12,10,04,30,11.90
2017,12,10,04,31,12.00
2017,12,10,04,32,12.00
2017,12,10,04,33,12.00
2017,12,10,04,34,12.00
2017,12,10,04,35,12.00
2017,12,10,04,36,12.00
2017,12,10,04,37,12.10
2017,12,10,04,38,12.10
2017,12,10,04,39,12.10
2017,12,10,04,40,12.10
2017,12,10,04,41,12.20
2017,12,10,04,42,12.20
2017,12,10,04,43,12.20
2017,12,10,04,44,12.20
2017,12,10,04,45,12.20
2017,12,10,04,46,12.20
2017,12,10,04,47,12.20
2017,12,10,04,48,12.20
2017,12,10,04,49,12.20
2017,12,10,04,50,12.20
2017,12,10,04,51,12.10
2017,12,10,04,52,12.10
2017,12,10,04,53,12.10
2017,12,10,04,54,12.00
2017,12,10,04,55,12.00
2017,12,10,04,56,12.00
2017,12,10,04,57,12.00
2017,12,10,04,58,12.10
2017,12,10,04,59,12.10
2017,12,10,05,00,12.00
2017,12,10,05,01,12.00
2017,12,10,05,02,12.00
2017,12,10,05,03,11.90
2017,12,10,05,04,11.90
2017,12,10,05,05,11.80
2017,12,10,05,06,11.80
2017,12,10,05,07,11.80
2017,12,10,05,08,11.80
2017,12,10,05,09,11.80
2017,12,10,05,10,11.70
2017,12,10,05,11,11.70
2017,12,10,05,12,11.70
2017,12,10,05,13,11.70
2017,12,10,05,14,11.70
2017,12,10,05,15,11.70
2017,12,10,05,16,11.70
2017,12,10,05,17,11.60
2017,12,10,05,18,11.60
2017,12,10,05,19,11.60
2017,12,10,05,20,11.60
2017,12,10,05,21,11.60
2017,12,10,05,22,11.60
2017,12,10,05,23,11.60
2017,12,10,05,24,11.70
2017,12,10,05,25,11.70
2017,12,10,05,26,11.70
2017,12,10,05,27,11.70
2017,12,10,05,28,11.70
2017,12,10,05,29,11.70
2017,12,10,05,30,11.70
2017,12,10,05,31,11.70
2017,12,10,05,32,11.60
2017,12,10,05,33,11.60
2017,12,10,05,34,11.60
2017,12,10,05,35,11.50
2017,12,10,05,36,11.50
2017,12,10,05,37,11.40
2017,12,10,05,38,11.40
2017,12,10,05,39,11.30
2017,12,10,05,40,11.30
2017,12,10,05,41,11.30
2017,12,10,05,42,11.20
2017,12,10,05,43,11.20
2017,12,10,05,44,11.20
2017,12,10,05,45,11.10
2017,12,10,05,46,11.10
2017,12,10,05,47,11.10
2017,12,10,05,48,11.00
2017,12,10,05,49,11.00
2017,12,10,05,50,10.90
2017,12,10,05,51,10.90
2017,12,10,05,52,10.90
2017,12,10,05,53,10.90
2017,12,10,05,54,10.90
2017,12,10,05,55,10.90
2017,12,10,05,56,10.90
2017,12,10,05,57,10.90
2017,12,10,05,58,10.90
2017,12,10,05,59,10.80
2017,12,10,06,00,10.80
2017,12,10,06,01,10.80
2017,12,10,06,02,10.80
2017,12,10,06,03,10.80
2017,12,10,06,04,10.70
2017,12,10,06,05,10.70
2017,12,10,06,06,10.70
2017,12,10,06,07,10.70
2017,12,10,06,08,10.70
2017,12,10,06,09,10.70
2017,12,10,06,10,10.70
2017,12,10,06,11,10.60
2017,12,10,06,12,10.60
2017,12,10,06,13,10.60
2017,12,10,06,14,10.60
2017,12,10,06,15,10.50
2017,12,10,06,16,10.50
2017,12,10,06,17,10.50
2017,12,10,06,18,10.50
2017,12,10,06,19,10.40
2017,12,10,06,20,10.40
2017,12,10,06,21,10.40
2017,12,10,06,22,10.40
2017,12,10,06,23,10.40
2017,12,10,06,24,10.40
2017,12,10,06,25,10.40
2017,12,10,06,26,10.40
2017,12,10,06,27,10.40
2017,12,10,06,28,10.40
2017,12,10,06,29,10.30
2017,12,10,06,30,10.30
2017,12,10,06,31,10.30
2017,12,10,06,32,10.30
2017,12,10,06,33,10.30
2017,12,10,06,34,10.30
2017,12,10,06,35,10.30
2017,12,10,06,36,10.30
2017,12,10,06,37,10.30
2017,12,10,06,38,10.20
2017,12,10,06,39,10.20
2017,12,10,06,40,10.20
2017,12,10,06,41,10.10
2017,12,10,06,42,10.10
2017,12,10,06,43,10.10
2017,12,10,06,44,10.10
2017,12,10,06,45,10.10
2017,12,10,06,46,10.10
2017,12,10,06,47,10.00
2017,12,10,06,48,10.00
2017,12,10,06,49,10.00
2017,12,10,06,50,10.00
2017,12,10,06,51,10.00
2017,12,10,06,52,9.90
2017,12,10,06,53,9.90
2017,12,10,06,54,9.90
2017,12,10,06,55,9.90
2017,12,10,06,56,9.90
2017,12,10,06,57,9.90
2017,12,10,06,58,9.90
2017,12,10,06,59,9.90
2017,12,10,07,00,9.90
2017,12,10,07,01,9.90
2017,12,10,07,02,9.90
2017,12,10,07,03,9.90
2017,12,10,07,04,9.90
2017,12,10,07,05,9.90
2017,12,10,07,06,9.90
2017,12,10,07,07,9.90
2017,12,10,07,08,9.90
2017,12,10,07,09,9.90
2017,12,10,07,10,9.90
2017,12,10,07,11,9.90
2017,12,10,07,12,9.90
2017,12,10,07,13,9.90
2017,12,10,07,14,9.90
2017,12,10,07,15,9.90
2017,12,10,07,16,9.90
2017,12,10,07,17,9.90
2017,12,10,07,18,9.90
2017,12,10,07,19,9.90
2017,12,10,07,20,9.90
2017,12,10,07,21,9.90
2017,12,10,07,22,9.90
2017,12,10,07,23,9.90
2017,12,10,07,24,9.90
2017,12,10,07,25,9.90
2017,12,10,07,26,9.90
2017,12,10,07,27,9.90
2017,12,10,07,28,9.90
2017,12,10,07,29,9.90
2017,12,10,07,30,9.90
2017,12,10,07,31,9.90
2017,12,10,07,32,9.90
2017,12,10,07,33,9.90
2017,12,10,07,34,9.90
2017,12,10,07,35,9.90
2017,12,10,07,36,9.90
2017,12,10,07,37,9.90
2017,12,10,07,38,9.80
2017,12,10,07,39,9.80
2017,12,10,07,40,9.80
2017,12,10,07,41,9.80
2017,12,10,07,42,9.80
2017,12,10,07,43,9.80
2017,12,10,07,44,9.80
2017,12,10,07,45,9.80
2017,12,10,07,46,9.80
2017,12,10,07,47,9.80
2017,12,10,07,48,9.80
2017,12,10,07,49,9.80
2017,12,10,07,50,9.80
2017,12,10,07,51,9.80
2017,12,10,07,52,9.80
2017,12,10,07,53,9.80
2017,12,10,07,54,9.80
2017,12,10,07,55,9.80
2017,12,10,07,56,9.80
2017,12,10,07,57,9.80
2017,12,10,07,58,9.80
2017,12,10,07,59,9.80
2017,12,10,08,00,9.80
2017,12,10,08,01,9.80
2017,12,10,08,02,9.80
2017,12,10,08,03,9.80
2017,12,10,08,04,9.80
2017,12,10,08,05,9.80
2017,12,10,08,06,9.80
2017,12,10,08,07,9.80
2017,12,10,08,08,9.80
2017,12,10,08,09,9.80
2017,12,10,08,10,9.80
2017,12,10,08,11,9.80
2017,12,10,08,12,9.80
2017,12,10,08,13,9.80
2017,12,10,08,14,9.80
2017,12,10,08,15,9.80
2017,12,10,08,16,9.80
2017,12,10,08,17,9.80
2017,12,10,08,18,9.80
2017,12,10,08,19,9.80
2017,12,10,08,20,9.80
2017,12,10,08,21,9.80
2017,12,10,08,22,9.80
2017,12,10,08,23,9.80
2017,12,10,08,24,9.80
2017,12,10,08,25,9.80
2017,12,10,08,26,9.80
2017,12,10,08,27,9.80
2017,12,10,08,28,9.80
2017,12,10,08,29,9.70
2017,12,10,08,30,9.70
2017,12,10,08,31,9.70
2017,12,10,08,32,9.70
2017,12,10,08,33,9.70
2017,12,10,08,34,9.70
2017,12,10,08,35,9.70
2017,12,10,08,36,9.70
2017,12,10,08,37,9.70
2017,12,10,08,38,9.70
2017,12,10,08,39,9.70
2017,12,10,08,40,9.70
2017,12,10,08,41,9.70
2017,12,10,08,42,9.70
2017,12,10,08,43,9.70
2017,12,10,08,44,9.70
2017,12,10,08,45,9.70
2017,12,10,08,46,9.70
2017,12,10,08,47,9.70
2017,12,10,08,48,9.70
2017,12,10,08,49,9.70
2017,12,10,08,50,9.70
2017,12,10,08,51,9.70
2017,12,10,08,52,9.80
2017,12,10,08,53,9.70
2017,12,10,08,54,9.70
2017,12,10,08,55,9.70
2017,12,10,08,56,9.80
2017,12,10,08,57,9.80
2017,12,10,08,58,9.80
2017,12,10,08,59,9.80
2017,12,10,09,00,9.80
2017,12,10,09,01,9.70
2017,12,10,09,02,9.70
2017,12,10,09,03,9.70
2017,12,10,09,04,9.70
2017,12,10,09,05,9.70
2017,12,10,09,06,9.70
2017,12,10,09,07,9.70
2017,12,10,09,08,9.70
2017,12,10,09,09,9.70
2017,12,10,09,10,9.70
2017,12,10,09,11,9.70
2017,12,10,09,12,9.70
2017,12,10,09,13,9.70
2017,12,10,09,14,9.70
2017,12,10,09,15,9.70
2017,12,10,09,16,9.70
2017,12,10,09,17,9.70
2017,12,10,09,18,9.70
2017,12,10,09,19,9.70
2017,12,10,09,20,9.70
2017,12,10,09,21,9.70
2017,12,10,09,22,9.70
2017,12,10,09,23,9.70
2017,12,10,09,24,9.70
2017,12,10,09,25,9.70
2017,12,10,09,26,9.70
2017,12,10,09,27,9.70
2017,12,10,09,28,9.70
2017,12,10,09,29,9.70
2017,12,10,09,30,9.70
2017,12,10,09,31,9.70
2017,12,10,09,32,9.70
2017,12,10,09,33,9.70
2017,12,10,09,34,9.70
2017,12,10,09,35,9.70
2017,12,10,09,36,9.70
2017,12,10,09,37,9.80
2017,12,10,09,38,9.80
2017,12,10,09,39,9.80
2017,12,10,09,40,9.80
2017,12,10,09,41,9.80
2017,12,10,09,42,9.80
2017,12,10,09,43,9.80
2017,12,10,09,44,9.80
2017,12,10,09,45,9.80
2017,12,10,09,46,9.80
2017,12,10,09,47,9.80
2017,12,10,09,48,9.80
2017,12,10,09,49,9.80
2017,12,10,09,50,9.70
2017,12,10,09,51,9.80
2017,12,10,09,52,9.80
2017,12,10,09,53,9.80
2017,12,10,09,54,9.80
2017,12,10,09,55,9.70
2017,12,10,09,56,9.70
2017,12,10,09,57,9.70
2017,12,10,09,58,9.70
2017,12,10,09,59,9.70
2017,12,10,10,00,9.80
2017,12,10,10,01,9.70
2017,12,10,10,02,9.80
2017,12,10,10,03,9.80
2017,12,10,10,04,9.80
2017,12,10,10,05,9.80
2017,12,10,10,06,9.80
2017,12,10,10,07,9.80
2017,12,10,10,08,9.80
2017,12,10,10,09,9.80
2017,12,10,10,10,9.80
2017,12,10,10,11,9.80
2017,12,10,10,12,9.80
2017,12,10,10,13,9.80
2017,12,10,10,14,9.80
2017,12,10,10,15,9.80
2017,12,10,10,16,9.80
2017,12,10,10,17,9.80
2017,12,10,10,18,9.90
2017,12,10,10,19,9.90
2017,12,10,10,20,9.90
2017,12,10,10,21,9.90
2017,12,10,10,22,9.90
2017,12,10,10,23,9.90
2017,12,10,10,24,9.90
2017,12,10,10,25,10.00
2017,12,10,10,26,10.00
2017,12,10,10,27,10.10
2017,12,10,10,28,10.10
2017,12,10,10,29,10.10
2017,12,10,10,30,10.10
2017,12,10,10,31,10.10
2017,12,10,10,32,10.20
2017,12,10,10,33,10.20
2017,12,10,10,34,10.20
2017,12,10,10,35,10.20
2017,12,10,10,36,10.30
2017,12,10,10,37,10.30
2017,12,10,10,38,10.30
2017,12,10,10,39,10.30
2017,12,10,10,40,10.30
2017,12,10,10,41,10.40
2017,12,10,10,42,10.40
2017,12,10,10,43,10.40
2017,12,10,10,44,10.40
2017,12,10,10,45,10.40
2017,12,10,10,46,10.40
2017,12,10,10,47,10.40
2017,12,10,10,48,10.50
2017,12,10,10,49,10.50
2017,12,10,10,50,10.50
2017,12,10,10,51,10.60
2017,12,10,10,52,10.60
2017,12,10,10,53,10.60
2017,12,10,10,54,10.70
2017,12,10,10,55,10.70
2017,12,10,10,56,10.70
2017,12,10,10,57,10.70
2017,12,10,10,58,10.80
2017,12,10,10,59,10.80
2017,12,10,11,00,10.80
2017,12,10,11,01,10.80
2017,12,10,11,02,10.90
2017,12,10,11,03,10.90
2017,12,10,11,04,10.90
2017,12,10,11,05,10.90
2017,12,10,11,06,11.00
2017,12,10,11,07,11.00
2017,12,10,11,08,11.00
2017,12,10,11,09,11.10
2017,12,10,11,10,11.10
2017,12,10,11,11,11.10
2017,12,10,11,12,11.10
2017,12,10,11,13,11.20
2017,12,10,11,14,11.20
2017,12,10,11,15,11.20
2017,12,10,11,16,11.20
2017,12,10,11,17,11.20
2017,12,10,11,18,11.30
2017,12,10,11,19,11.30
2017,12,10,11,20,11.30
2017,12,10,11,21,11.30
2017,12,10,11,22,11.30
2017,12,10,11,23,11.30
2017,12,10,11,24,11.40
2017,12,10,11,25,11.40
2017,12,10,11,26,11.30
2017,12,10,11,27,11.30
2017,12,10,11,28,11.30
2017,12,10,11,29,11.30
2017,12,10,11,30,11.30
2017,12,10,11,31,11.30
2017,12,10,11,32,11.30
2017,12,10,11,33,11.30
2017,12,10,11,34,11.30
2017,12,10,11,35,11.30
2017,12,10,11,36,11.30
2017,12,10,11,37,11.30
2017,12,10,11,38,11.30
2017,12,10,11,39,11.20
2017,12,10,11,40,11.20
2017,12,10,11,41,11.20
2017,12,10,11,42,11.20
2017,12,10,11,43,11.20
2017,12,10,11,44,11.10
2017,12,10,11,45,11.10
2017,12,10,11,46,11.10
2017,12,10,11,47,11.10
2017,12,10,11,48,11.10
2017,12,10,11,49,11.10
2017,12,10,11,50,11.10
2017,12,10,11,51,11.10
2017,12,10,11,52,11.10
2017,12,10,11,53,11.20
2017,12,10,11,54,11.20
2017,12,10,11,55,11.20
2017,12,10,11,56,11.20
2017,12,10,11,57,11.20
2017,12,10,11,58,11.20
2017,12,10,11,59,11.20
2017,12,10,12,00,11.20
2017,12,10,12,01,11.20
2017,12,10,12,02,11.20
2017,12,10,12,03,11.20
2017,12,10,12,04,11.20
2017,12,10,12,05,11.30
2017,12,10,12,06,11.30
2017,12,10,12,07,11.30
2017,12,10,12,08,11.30
2017,12,10,12,09,11.20
2017,12,10,12,10,11.20
2017,12,10,12,11,11.20
2017,12,10,12,12,11.20
2017,12,10,12,13,11.20
2017,12,10,12,14,11.20
2017,12,10,12,15,11.20
2017,12,10,12,16,11.20
2017,12,10,12,17,11.20
2017,12,10,12,18,11.10
2017,12,10,12,19,11.10
2017,12,10,12,20,11.10
2017,12,10,12,21,11.10
2017,12,10,12,22,11.10
2017,12,10,12,23,11.10
2017,12,10,12,24,11.00
2017,12,10,12,25,11.00
2017,12,10,12,26,11.00
2017,12,10,12,27,11.00
2017,12,10,12,28,10.90
2017,12,10,12,29,11.00
2017,12,10,12,30,11.00
2017,12,10,12,31,11.00
2017,12,10,12,32,11.00
2017,12,10,12,33,11.00
2017,12,10,12,34,11.00
2017,12,10,12,35,10.90
2017,12,10,12,36,10.90
2017,12,10,12,37,10.90
2017,12,10,12,38,10.80
2017,12,10,12,39,10.80
2017,12,10,12,40,10.80
2017,12,10,12,41,10.80
2017,12,10,12,42,10.80
2017,12,10,12,43,10.80
2017,12,10,12,44,10.80
2017,12,10,12,45,10.80
2017,12,10,12,46,10.80
2017,12,10,12,47,10.80
2017,12,10,12,48,10.80
2017,12,10,12,49,10.80
2017,12,10,12,50,10.80
2017,12,10,12,51,10.80
2017,12,10,12,52,10.80
2017,12,10,12,53,10.80
2017,12,10,12,54,10.80
2017,12,10,12,55,10.80
2017,12,10,12,56,10.80
2017,12,10,12,57,10.80
2017,12,10,12,58,10.80
2017,12,10,12,59,10.80
2017,12,10,13,00,10.80
2017,12,10,13,01,10.90
2017,12,10,13,02,10.90
2017,12,10,13,03,10.90
2017,12,10,13,04,10.90
2017,12,10,13,05,10.90
2017,12,10,13,06,10.80
2017,12,10,13,07,10.80
2017,12,10,13,08,10.80
2017,12,10,13,09,10.80
2017,12,10,13,10,10.80
2017,12,10,13,11,10.80
2017,12,10,13,12,10.80
2017,12,10,13,13,10.80
2017,12,10,13,14,10.80
2017,12,10,13,15,10.80
2017,12,10,13,16,10.80
2017,12,10,13,17,10.80
2017,12,10,13,18,10.80
2017,12,10,13,19,10.80
2017,12,10,13,20,10.80
2017,12,10,13,21,10.80
2017,12,10,13,22,10.80
2017,12,10,13,23,10.80
2017,12,10,13,24,10.80
2017,12,10,13,25,10.80
2017,12,10,13,26,10.80
2017,12,10,13,27,10.80
2017,12,10,13,28,10.80
2017,12,10,13,29,10.80
2017,12,10,13,30,10.80
2017,12,10,13,31,10.80
2017,12,10,13,32,10.80
2017,12,10,13,33,10.80
2017,12,10,13,34,10.80
2017,12,10,13,35,10.90
2017,12,10,13,36,10.90
2017,12,10,13,37,10.90
2017,12,10,13,38,10.90
2017,12,10,13,39,10.90
2017,12,10,13,40,10.90
2017,12,10,13,41,10.90
2017,12,10,13,42,10.90
2017,12,10,13,43,10.90
2017,12,10,13,44,11.00
2017,12,10,13,45,11.00
2017,12,10,13,46,11.00
2017,12,10,13,47,11.00
2017,12,10,13,48,11.00
2017,12,10,13,49,11.10
2017,12,10,13,50,11.10
2017,12,10,13,51,11.10
2017,12,10,13,52,11.10
2017,12,10,13,53,11.10
2017,12,10,13,54,11.10
2017,12,10,13,55,11.20
2017,12,10,13,56,11.20
2017,12,10,13,57,11.20
2017,12,10,13,58,11.20
2017,12,10,13,59,11.30
2017,12,10,14,00,11.30
2017,12,10,14,01,11.30
2017,12,10,14,02,11.40
2017,12,10,14,03,11.40
2017,12,10,14,04,11.40
2017,12,10,14,05,11.40
2017,12,10,14,06,11.40
2017,12,10,14,07,11.40
2017,12,10,14,08,11.30
2017,12,10,14,09,11.30
2017,12,10,14,10,11.30
2017,12,10,14,11,11.30
2017,12,10,14,12,11.30
2017,12,10,14,13,11.30
2017,12,10,14,14,11.30
2017,12,10,14,15,11.30
2017,12,10,14,16,11.30
2017,12,10,14,17,11.20
2017,12,10,14,18,11.20
2017,12,10,14,19,11.20
2017,12,10,14,20,11.20
2017,12,10,14,21,11.20
2017,12,10,14,22,11.20
2017,12,10,14,23,11.20
2017,12,10,14,24,11.30
2017,12,10,14,25,11.20
2017,12,10,14,26,11.20
2017,12,10,14,27,11.20
2017,12,10,14,28,11.20
2017,12,10,14,29,11.10
2017,12,10,14,30,11.10
2017,12,10,14,31,11.10
2017,12,10,14,32,11.10
2017,12,10,14,33,11.10
2017,12,10,14,34,11.10
2017,12,10,14,35,11.10
2017,12,10,14,36,11.00
2017,12,10,14,37,11.00
2017,12,10,14,38,11.00
2017,12,10,14,39,11.00
2017,12,10,14,40,10.90
2017,12,10,14,41,10.90
2017,12,10,14,42,10.90
2017,12,10,14,43,10.90
2017,12,10,14,44,10.90
2017,12,10,14,45,10.90
2017,12,10,14,46,10.90
2017,12,10,14,47,10.80
2017,12,10,14,48,10.80
2017,12,10,14,49,10.80
2017,12,10,14,50,10.80
2017,12,10,14,51,10.70
2017,12,10,14,52,10.70
2017,12,10,14,53,10.70
2017,12,10,14,54,10.70
2017,12,10,14,55,10.70
2017,12,10,14,56,10.70
2017,12,10,14,57,10.70
2017,12,10,14,58,10.70
2017,12,10,14,59,10.70
2017,12,10,15,00,10.70
2017,12,10,15,01,10.70
2017,12,10,15,02,10.70
2017,12,10,15,03,10.70
2017,12,10,15,04,10.70
2017,12,10,15,05,10.70
2017,12,10,15,06,10.70
2017,12,10,15,07,10.70
2017,12,10,15,08,10.70
2017,12,10,15,09,10.70
2017,12,10,15,10,10.70
2017,12,10,15,11,10.70
2017,12,10,15,12,10.70
2017,12,10,15,13,10.70
2017,12,10,15,14,10.70
2017,12,10,15,15,10.70
2017,12,10,15,16,10.70
2017,12,10,15,17,10.70
2017,12,10,15,18,10.70
2017,12,10,15,19,10.70
2017,12,10,15,20,10.70
2017,12,10,15,21,10.70
2017,12,10,15,22,10.70
2017,12,10,15,23,10.70
2017,12,10,15,24,10.70
2017,12,10,15,25,10.70
2017,12,10,15,26,10.70
2017,12,10,15,27,10.60
2017,12,10,15,28,10.60
2017,12,10,15,29,10.60
2017,12,10,15,30,10.60
2017,12,10,15,31,10.60
2017,12,10,15,32,10.60
2017,12,10,15,33,10.60
2017,12,10,15,34,10.60
2017,12,10,15,35,10.60
2017,12,10,15,36,10.60
2017,12,10,15,37,10.60
2017,12,10,15,38,10.60
2017,12,10,15,39,10.60
2017,12,10,15,40,10.60
2017,12,10,15,41,10.50
2017,12,10,15,42,10.50
2017,12,10,15,43,10.50
2017,12,10,15,44,10.40
2017,12,10,15,45,10.40
2017,12,10,15,46,10.40
2017,12,10,15,47,10.40
2017,12,10,15,48,10.40
2017,12,10,15,49,10.40
2017,12,10,15,50,10.30
2017,12,10,15,51,10.30
2017,12,10,15,52,10.30
2017,12,10,15,53,10.30
2017,12,10,15,54,10.30
2017,12,10,15,55,10.30
2017,12,10,15,56,10.20
2017,12,10,15,57,10.20
2017,12,10,15,58,10.20
2017,12,10,15,59,10.20
2017,12,10,16,00,10.20
2017,12,10,16,01,10.10
2017,12,10,16,02,10.10
2017,12,10,16,03,10.10
2017,12,10,16,04,10.10
2017,12,10,16,05,10.10
2017,12,10,16,06,10.10
2017,12,10,16,07,10.10
2017,12,10,16,08,10.00
2017,12,10,16,09,10.00
2017,12,10,16,10,10.00
2017,12,10,16,11,10.00
2017,12,10,16,12,9.90
2017,12,10,16,13,9.90
2017,12,10,16,14,9.90
2017,12,10,16,15,9.90
2017,12,10,16,16,9.80
2017,12,10,16,17,9.70
2017,12,10,16,18,9.60
2017,12,10,16,19,9.60
2017,12,10,16,20,9.60
2017,12,10,16,21,9.50
2017,12,10,16,22,9.50
2017,12,10,16,23,9.40
2017,12,10,16,24,9.40
2017,12,10,16,25,9.30
2017,12,10,16,26,9.30
2017,12,10,16,27,9.30
2017,12,10,16,28,9.30
2017,12,10,16,29,9.20
2017,12,10,16,30,9.20
2017,12,10,16,31,9.20
2017,12,10,16,32,9.20
2017,12,10,16,33,9.10
2017,12,10,16,34,9.10
2017,12,10,16,35,9.10
2017,12,10,16,36,9.10
2017,12,10,16,37,9.10
2017,12,10,16,38,9.10
2017,12,10,16,39,9.00
2017,12,10,16,40,9.00
2017,12,10,16,41,8.90
2017,12,10,16,42,8.90
2017,12,10,16,43,8.90
2017,12,10,16,44,8.90
2017,12,10,16,45,8.90
2017,12,10,16,46,8.90
2017,12,10,16,47,8.90
2017,12,10,16,48,8.80
2017,12,10,16,49,8.80
2017,12,10,16,50,8.80
2017,12,10,16,51,8.80
2017,12,10,16,52,8.70
2017,12,10,16,53,8.60
2017,12,10,16,54,8.50
2017,12,10,16,55,8.50
2017,12,10,16,56,8.40
2017,12,10,16,57,8.30
2017,12,10,16,58,8.20
2017,12,10,16,59,8.20
2017,12,10,17,00,8.10
2017,12,10,17,01,8.10
2017,12,10,17,02,8.00
2017,12,10,17,03,8.00
2017,12,10,17,04,8.00
2017,12,10,17,05,8.00
2017,12,10,17,06,7.90
2017,12,10,17,07,7.90
2017,12,10,17,08,7.90
2017,12,10,17,09,7.90
2017,12,10,17,10,7.90
2017,12,10,17,11,7.90
2017,12,10,17,12,7.90
2017,12,10,17,13,7.90
2017,12,10,17,14,7.80
2017,12,10,17,15,7.80
2017,12,10,17,16,7.80
2017,12,10,17,17,7.80
2017,12,10,17,18,7.80
2017,12,10,17,19,7.90
2017,12,10,17,20,7.80
2017,12,10,17,21,7.80
2017,12,10,17,22,7.80
2017,12,10,17,23,7.90
2017,12,10,17,24,7.90
2017,12,10,17,25,7.90
2017,12,10,17,26,7.90
2017,12,10,17,27,7.90
2017,12,10,17,28,7.90
2017,12,10,17,29,7.90
2017,12,10,17,30,7.90
2017,12,10,17,31,8.00
2017,12,10,17,32,8.00